TimeMST,TemperatureF,Dew PointF,Humidity,Sea Level PressureIn,VisibilityMPH,Wind Direction,Wind SpeedMPH,Gust SpeedMPH,PrecipitationIn,Events,Conditions,WindDirDegrees,DateUTC
12:10 AM,14.0,8.6,79,29.92,10.0,SW,3.5,-,N/A,,Clear,230,2013-12-13 07:10:00
12:30 AM,12.2,8.6,85,29.91,10.0,West,3.5,-,N/A,,Clear,280,2013-12-13 07:30:00
12:50 AM,10.4,6.8,85,29.90,10.0,SSW,3.5,-,N/A,,Clear,200,2013-12-13 07:50:00
1:10 AM,12.2,8.6,85,29.89,10.0,SSW,3.5,-,N/A,,Clear,210,2013-12-13 08:10:00
1:30 AM,12.2,8.6,85,29.89,10.0,SW,4.6,-,N/A,,Clear,230,2013-12-13 08:30:00
1:50 AM,12.2,8.6,85,29.88,10.0,SSW,3.5,-,N/A,,Clear,200,2013-12-13 08:50:00
2:10 AM,10.4,8.6,92,29.87,10.0,SSW,4.6,-,N/A,,Clear,200,2013-12-13 09:10:00
2:30 AM,10.4,8.6,92,29.87,10.0,South,5.8,-,N/A,,Clear,190,2013-12-13 09:30:00
2:50 AM,12.2,8.6,85,29.87,10.0,SSW,8.1,-,N/A,,Clear,210,2013-12-13 09:50:00
3:10 AM,10.4,8.6,92,29.86,10.0,SW,3.5,-,N/A,,Clear,220,2013-12-13 10:10:00
3:30 AM,10.4,8.6,92,29.86,10.0,South,5.8,-,N/A,,Clear,190,2013-12-13 10:30:00
3:50 AM,10.4,8.6,92,29.85,10.0,South,8.1,-,N/A,,Clear,190,2013-12-13 10:50:00
4:10 AM,8.6,5.0,85,29.86,10.0,West,4.6,-,N/A,,Clear,270,2013-12-13 11:10:00
4:30 AM,8.6,5.0,85,29.85,10.0,SSW,5.8,-,N/A,,Clear,210,2013-12-13 11:30:00
4:50 AM,10.4,6.8,85,29.85,10.0,SSW,5.8,-,N/A,,Clear,200,2013-12-13 11:50:00
5:10 AM,8.6,5.0,85,29.85,10.0,Calm,Calm,-,N/A,,Clear,0,2013-12-13 12:10:00
5:30 AM,8.6,5.0,85,29.85,10.0,SSW,5.8,-,N/A,,Clear,200,2013-12-13 12:30:00
5:50 AM,10.4,6.8,85,29.85,10.0,WSW,4.6,-,N/A,,Clear,240,2013-12-13 12:50:00
6:10 AM,8.6,5.0,85,29.85,10.0,SSW,6.9,-,N/A,,Clear,210,2013-12-13 13:10:00
6:30 AM,8.6,5.0,85,29.85,10.0,South,4.6,-,N/A,,Clear,180,2013-12-13 13:30:00
6:50 AM,10.4,6.8,85,29.86,10.0,South,6.9,-,N/A,,Clear,190,2013-12-13 13:50:00
7:10 AM,8.6,6.8,92,29.86,10.0,South,8.1,-,N/A,,Clear,190,2013-12-13 14:10:00
7:30 AM,8.6,6.8,92,29.86,10.0,South,6.9,-,N/A,,Clear,190,2013-12-13 14:30:00
7:50 AM,10.4,8.6,92,29.86,10.0,SW,4.6,-,N/A,,Clear,230,2013-12-13 14:50:00
8:10 AM,14.0,10.4,86,29.86,10.0,South,4.6,-,N/A,,Clear,190,2013-12-13 15:10:00
8:30 AM,17.6,12.2,79,29.87,10.0,SSW,3.5,-,N/A,,Clear,200,2013-12-13 15:30:00
8:50 AM,21.2,14.0,74,29.87,10.0,SW,5.8,-,N/A,,Clear,220,2013-12-13 15:50:00
9:10 AM,23.0,15.8,74,29.87,10.0,South,4.6,-,N/A,,Clear,180,2013-12-13 16:10:00
9:30 AM,26.6,15.8,64,29.87,10.0,South,4.6,-,N/A,,Clear,180,2013-12-13 16:30:00
9:50 AM,28.4,17.6,64,29.86,10.0,SSW,4.6,-,N/A,,Clear,200,2013-12-13 16:50:00
10:10 AM,32.0,19.4,60,29.86,10.0,South,6.9,-,N/A,,Clear,170,2013-12-13 17:10:00
10:30 AM,46.4,17.6,32,29.85,10.0,North,24.2,28.8,N/A,,Clear,350,2013-12-13 17:30:00
10:50 AM,48.2,15.8,27,29.84,10.0,North,25.3,33.4,N/A,,Clear,350,2013-12-13 17:50:00
11:10 AM,50.0,17.6,28,29.83,10.0,North,25.3,33.4,N/A,,Clear,350,2013-12-13 18:10:00
11:30 AM,50.0,17.6,28,29.82,10.0,North,27.6,36.8,N/A,,Clear,350,2013-12-13 18:30:00
11:50 AM,50.0,17.6,28,29.82,10.0,NNW,27.6,34.5,N/A,,Clear,340,2013-12-13 18:50:00
12:10 PM,50.0,17.6,28,29.82,10.0,North,25.3,34.5,N/A,,Clear,350,2013-12-13 19:10:00
12:30 PM,50.0,17.6,28,29.82,10.0,NNW,26.5,31.1,N/A,,Clear,340,2013-12-13 19:30:00
12:50 PM,50.0,17.6,28,29.83,10.0,NNW,23.0,-,N/A,,Clear,340,2013-12-13 19:50:00
1:10 PM,46.4,17.6,32,29.83,10.0,North,18.4,28.8,N/A,,Clear,350,2013-12-13 20:10:00
1:30 PM,48.2,17.6,30,29.84,10.0,North,25.3,29.9,N/A,,Clear,350,2013-12-13 20:30:00
1:50 PM,48.2,17.6,30,29.84,10.0,NNW,27.6,33.4,N/A,,Clear,340,2013-12-13 20:50:00
2:10 PM,44.6,17.6,34,29.85,10.0,North,19.6,25.3,N/A,,Clear,350,2013-12-13 21:10:00
2:30 PM,44.6,17.6,34,29.86,10.0,North,19.6,-,N/A,,Clear,360,2013-12-13 21:30:00
2:50 PM,44.6,19.4,37,29.86,10.0,North,16.1,23.0,N/A,,Clear,360,2013-12-13 21:50:00
3:10 PM,42.8,19.4,39,29.87,10.0,North,18.4,24.2,N/A,,Clear,10,2013-12-13 22:10:00
3:30 PM,42.8,19.4,39,29.89,10.0,North,15.0,23.0,N/A,,Clear,10,2013-12-13 22:30:00
3:50 PM,41.0,21.2,45,29.91,10.0,North,12.7,18.4,N/A,,Clear,360,2013-12-13 22:50:00
4:10 PM,39.2,21.2,49,29.93,10.0,North,13.8,-,N/A,,Clear,360,2013-12-13 23:10:00
4:30 PM,37.4,21.2,52,29.94,10.0,North,9.2,-,N/A,,Clear,10,2013-12-13 23:30:00
4:50 PM,37.4,21.2,52,29.94,10.0,NNE,5.8,-,N/A,,Clear,20,2013-12-13 23:50:00
5:10 PM,35.6,21.2,56,29.95,10.0,NNE,4.6,-,N/A,,Clear,30,2013-12-14 00:10:00
5:30 PM,33.8,21.2,60,29.96,10.0,NNE,6.9,-,N/A,,Clear,20,2013-12-14 00:30:00
5:50 PM,33.8,23.0,65,29.97,10.0,NNE,6.9,-,N/A,,Clear,20,2013-12-14 00:50:00
6:10 PM,33.8,23.0,65,29.98,10.0,North,5.8,-,N/A,,Clear,10,2013-12-14 01:10:00
6:30 PM,33.8,23.0,65,30.00,10.0,North,4.6,-,N/A,,Clear,10,2013-12-14 01:30:00
6:50 PM,33.8,23.0,65,30.01,10.0,North,6.9,-,N/A,,Scattered Clouds,10,2013-12-14 01:50:00
7:10 PM,33.8,23.0,65,30.02,10.0,North,9.2,-,N/A,,Mostly Cloudy,10,2013-12-14 02:10:00
7:30 PM,33.8,23.0,65,30.03,10.0,North,11.5,-,N/A,,Overcast,10,2013-12-14 02:30:00
7:50 PM,33.8,21.2,60,30.03,10.0,North,13.8,-,N/A,,Overcast,10,2013-12-14 02:50:00
8:10 PM,32.0,21.2,64,30.04,10.0,NNE,10.4,-,N/A,,Overcast,20,2013-12-14 03:10:00
8:30 PM,32.0,23.0,69,30.06,10.0,NNE,9.2,-,N/A,,Overcast,20,2013-12-14 03:30:00
8:50 PM,32.0,21.2,64,30.06,10.0,NE,6.9,-,N/A,,Overcast,40,2013-12-14 03:50:00
9:10 PM,32.0,23.0,69,30.07,10.0,NNE,6.9,-,N/A,,Overcast,30,2013-12-14 04:10:00
9:30 PM,32.0,23.0,69,30.08,10.0,NNE,4.6,-,N/A,,Overcast,30,2013-12-14 04:30:00
9:50 PM,32.0,23.0,69,30.08,10.0,NNE,4.6,-,N/A,,Overcast,20,2013-12-14 04:50:00
10:10 PM,32.0,24.8,75,30.10,10.0,North,6.9,-,N/A,,Overcast,10,2013-12-14 05:10:00
10:30 PM,33.8,26.6,75,30.11,10.0,North,6.9,-,N/A,,Overcast,360,2013-12-14 05:30:00
10:50 PM,32.0,26.6,80,30.12,10.0,North,5.8,-,N/A,,Overcast,10,2013-12-14 05:50:00
11:10 PM,30.2,23.0,75,30.13,10.0,East,3.5,-,N/A,,Overcast,90,2013-12-14 06:10:00
11:30 PM,30.2,23.0,75,30.13,10.0,Calm,Calm,-,N/A,,Overcast,0,2013-12-14 06:30:00
11:50 PM,28.4,23.0,80,30.13,10.0,Calm,Calm,-,N/A,,Overcast,0,2013-12-14 06:50:00